EW1296 Weather Reports


time (UTC)temp
C
wind
direction
speed
KPH
gust
KPH
rain 1hr
cm
rain 24hr
cm
rain mn
cm
humidity
%
barometer
mb
20260505051016 15 0.0 1.6 0.00 0.00 0.00 71 1010.6
20260505050516 15 0.0 4.8 0.00 0.00 0.00 71 1010.6
20260505041516 15 0.0 1.6 0.00 0.00 0.00 70 1010.9
20260505041016 15 0.0 4.8 0.00 0.00 0.00 70 1010.9
20260505040517 15 0.0 3.2 0.00 0.00 0.00 70 1011.0
20260505040037 15 158 1.6 3.2 0.00 0.00 0.00 70 1011.0
20260505035517 15 0.0 3.2 0.00 0.00 0.00 69 1011.0
20260505035017 15 0.0 4.8 0.00 0.00 0.00 69 1011.0
20260505034517 15 0.0 3.2 0.00 0.00 0.00 68 1011.0
20260505034037 15 225 1.6 4.8 0.00 0.00 0.00 68 1011.0
20260505033517 15 0.0 3.2 0.00 0.00 0.00 68 1011.0
20260505033017 15 203 1.6 8.0 0.00 0.00 0.00 68 1011.1
20260505032518 15 225 3.2 8.0 0.00 0.00 0.00 67 1011.0
20260505032016 15 203 1.6 6.4 0.00 0.00 0.00 67 1011.1
20260505031518 15 203 3.2 9.7 0.00 0.00 0.00 67 1011.2
20260505031037 15 225 3.2 12.9 0.00 0.00 0.00 66 1011.2
20260505030537 15 225 1.6 12.9 0.00 0.00 0.00 65 1011.1
20260505030017 16 203 3.2 9.7 0.00 0.00 0.00 65 1011.2
20260505025518 16 203 4.8 17.7 0.00 0.00 0.00 64 1011.2
20260505025016 16 225 4.8 19.3 0.00 0.00 0.00 64 1011.3
20260505024516 16 203 1.6 6.4 0.00 0.00 0.00 63 1011.3
20260505024016 16 225 3.2 12.9 0.00 0.00 0.00 63 1011.3
20260505023518 16 225 6.4 14.5 0.00 0.00 0.00 62 1011.3
20260505023017 16 203 3.2 11.3 0.00 0.00 0.00 62 1011.3
20260505022517 16 225 3.2 8.0 0.00 0.00 0.00 61 1011.3
20260505022036 16 203 4.8 17.7 0.00 0.00 0.00 60 1011.4
20260505021518 16 225 8.0 20.9 0.00 0.00 0.00 60 1011.5
20260505021017 16 203 8.0 16.1 0.00 0.00 0.00 58 1011.4
20260505020518 17 225 6.4 17.7 0.00 0.00 0.00 58 1011.4
20260505020017 17 225 6.4 16.1 0.00 0.00 0.00 57 1011.3
20260505015516 17 225 6.4 16.1 0.00 0.00 0.00 57 1011.2
20260505015017 17 225 6.4 17.7 0.00 0.00 0.00 56 1011.2
20260505014516 17 225 6.4 17.7 0.00 0.00 0.00 56 1011.2
20260505014017 17 225 4.8 16.1 0.00 0.00 0.00 56 1011.2
20260505013518 17 225 6.4 16.1 0.00 0.00 0.00 56 1011.2
20260505013056 17 225 6.4 12.9 0.00 0.00 0.00 56 1011.2
20260505012618 17 225 6.4 16.1 0.00 0.00 0.00 55 1011.1
20260505012016 17 225 6.4 16.1 0.00 0.00 0.00 56 1010.9
20260505011537 17 225 4.8 14.5 0.00 0.00 0.00 56 1010.9
20260505011018 17 225 4.8 16.1 0.00 0.00 0.00 55 1010.8
20260505010517 17 225 4.8 12.9 0.00 0.00 0.00 55 1010.8
20260505010016 17 225 4.8 16.1 0.00 0.00 0.00 55 1010.7
20260505005537 17 225 6.4 17.7 0.00 0.00 0.00 54 1010.5
20260505005016 17 225 4.8 12.9 0.00 0.00 0.00 55 1010.5
20260505004518 17 203 4.8 19.3 0.00 0.00 0.00 56 1010.5
20260505004016 17 225 4.8 12.9 0.00 0.00 0.00 57 1010.4
20260505003517 17 203 4.8 19.3 0.00 0.00 0.00 58 1010.3
20260505003016 17 180 3.2 14.5 0.00 0.00 0.00 59 1010.4
20260505002558 17 225 4.8 12.9 0.00 0.00 0.00 59 1010.2
20260505002037 17 225 4.8 14.5 0.00 0.00 0.00 59 1010.1
20260505001516 17 225 4.8 11.3 0.00 0.00 0.00 59 1010.1
20260505001017 17 225 4.8 14.5 0.00 0.00 0.00 59 1010.0
20260505000517 18 225 4.8 16.1 0.00 0.00 0.00 59 1009.9
20260505000017 18 225 4.8 12.9 0.00 0.00 0.00 59 1009.9
20260504235517 18 225 4.8 11.3 0.00 0.00 0.00 58 1009.8
20260504235016 18 203 3.2 9.7 0.00 0.00 0.00 58 1009.8
20260504234516 18 225 4.8 12.9 0.00 0.00 0.00 58 1009.7
20260504234038 18 225 3.2 9.7 0.00 0.00 0.00 58 1009.6
20260504233516 18 225 4.8 14.5 0.00 0.00 0.00 57 1009.5
20260504233016 18 225 3.2 12.9 0.00 0.00 0.00 57 1009.4
20260504232516 18 135 1.6 6.4 0.00 0.00 0.00 57 1009.4
20260504232016 19 135 1.6 4.8 0.00 0.00 0.00 56 1009.4
20260504231516 19 135 1.6 3.2 0.00 0.00 0.00 56 1009.3
20260504231016 19 135 3.2 12.9 0.00 0.00 0.00 55 1009.3
20260504230516 19 135 1.6 11.3 0.00 0.00 0.00 53 1009.3
20260504230017 20 158 1.6 8.0 0.00 0.00 0.00 52 1009.2
20260504225536 20 158 1.6 4.8 0.00 0.00 0.00 52 1009.2
20260504225017 20 135 1.6 4.8 0.00 0.00 0.00 53 1009.2
20260504224516 20 135 1.6 6.4 0.00 0.00 0.00 53 1009.3
20260504224016 20 180 1.6 6.4 0.00 0.00 0.00 52 1009.3
20260504223516 20 135 1.6 4.8 0.00 0.00 0.00 52 1009.2
20260504223017 20 135 3.2 12.9 0.00 0.00 0.00 52 1009.3
20260504222517 20 158 1.6 8.0 0.00 0.00 0.00 51 1009.3
20260504222016 20 180 3.2 8.0 0.00 0.00 0.00 50 1009.3
20260504221516 20 158 3.2 11.3 0.00 0.00 0.00 50 1009.3
20260504221016 20 135 4.8 12.9 0.00 0.00 0.00 52 1009.4
20260504220517 20 135 6.4 16.1 0.00 0.00 0.00 52 1009.4
20260504220018 21 135 3.2 11.3 0.00 0.00 0.00 50 1009.4
20260504215516 21 135 3.2 9.7 0.00 0.00 0.00 48 1009.5
20260504215016 21 158 3.2 14.5 0.00 0.00 0.00 46 1009.5
20260504214516 21 180 1.6 6.4 0.00 0.00 0.00 45 1009.6
20260504214016 21 135 1.6 9.7 0.00 0.00 0.00 45 1009.5
20260504213556 21 158 1.6 11.3 0.00 0.00 0.00 44 1009.6
20260504213057 21 158 1.6 6.4 0.00 0.00 0.00 45 1009.7
20260504212516 21 158 1.6 9.7 0.00 0.00 0.00 45 1009.8
20260504212016 22 135 4.8 12.9 0.00 0.00 0.00 43 1009.7
20260504211516 22 135 3.2 11.3 0.00 0.00 0.00 44 1009.8
20260504211036 22 135 1.6 8.0 0.00 0.00 0.00 45 1009.8
20260504210517 22 135 1.6 12.9 0.00 0.00 0.00 44 1009.7
20260504210016 22 135 4.8 12.9 0.00 0.00 0.00 43 1009.7
20260504205516 23 135 3.2 12.9 0.00 0.00 0.00 41 1009.6
20260504205016 23 135 3.2 14.5 0.00 0.00 0.00 39 1009.6
20260504204517 23 225 4.8 14.5 0.00 0.00 0.00 36 1009.6
20260504204016 23 158 3.2 12.9 0.00 0.00 0.00 37 1009.6
20260504203516 23 158 1.6 16.1 0.00 0.00 0.00 37 1009.7
20260504203016 24 180 1.6 8.0 0.00 0.00 0.00 38 1009.7
20260504202517 24 203 3.2 17.7 0.00 0.00 0.00 37 1009.8
20260504202016 24 225 3.2 12.9 0.00 0.00 0.00 36 1009.7
20260504201516 23 248 4.8 12.9 0.00 0.00 0.00 36 1009.7
20260504201016 24 225 4.8 12.9 0.00 0.00 0.00 36 1009.8
20260504200517 24 225 4.8 19.3 0.00 0.00 0.00 34 1009.8
20260504200016 23 248 9.7 25.7 0.00 0.00 0.00 32 1009.7
20260504195516 24 203 8.0 20.9 0.00 0.00 0.00 33 1009.9
20260504195016 24 180 4.8 12.9 0.00 0.00 0.00 34 1009.9
20260504194516 23 225 6.4 17.7 0.00 0.00 0.00 33 1009.9
20260504194016 23 225 9.7 20.9 0.00 0.00 0.00 32 1010.0
20260504193516 23 225 6.4 19.3 0.00 0.00 0.00 32 1010.0
20260504193016 23 225 12.9 27.4 0.00 0.00 0.00 33 1010.1
20260504192516 23 225 12.9 29.0 0.00 0.00 0.00 33 1010.0
20260504192036 23 225 11.3 27.4 0.00 0.00 0.00 32 1010.2
20260504191516 23 225 8.0 24.1 0.00 0.00 0.00 34 1010.2
20260504191018 23 203 9.7 22.5 0.00 0.00 0.00 33 1010.3
20260504190516 23 225 8.0 20.9 0.00 0.00 0.00 34 1010.3
20260504190016 23 225 9.7 20.9 0.00 0.00 0.00 34 1010.5
20260504185516 22 225 8.0 25.7 0.00 0.00 0.00 34 1010.5
20260504185017 22 225 8.0 20.9 0.00 0.00 0.00 33 1010.7
20260504184516 22 225 9.7 19.3 0.00 0.00 0.00 33 1010.8
20260504184016 22 225 9.7 24.1 0.00 0.00 0.00 34 1010.9
20260504183537 22 225 9.7 22.5 0.00 0.00 0.00 35 1010.9
20260504183016 22 225 11.3 20.9 0.00 0.00 0.00 34 1010.8
20260504182517 22 225 11.3 22.5 0.00 0.00 0.00 34 1011.0
20260504182016 22 225 8.0 20.9 0.00 0.00 0.00 36 1011.0
20260504181516 22 225 9.7 22.5 0.00 0.00 0.00 34 1011.1
20260504181017 22 225 11.3 29.0 0.00 0.00 0.00 36 1011.0
20260504180516 22 225 11.3 20.9 0.00 0.00 0.00 35 1011.1
20260504180016 22 203 12.9 25.7 0.00 0.00 0.00 35 1011.3
20260504175516 22 225 11.3 20.9 0.00 0.00 0.00 34 1011.3
20260504175016 22 225 11.3 24.1 0.00 0.00 0.00 35 1011.4
20260504174517 22 225 8.0 25.7 0.00 0.00 0.00 36 1011.4
20260504174017 22 225 8.0 25.7 0.00 0.00 0.00 36 1011.5
20260504173516 22 225 9.7 25.7 0.00 0.00 0.00 35 1011.5
20260504173016 21 225 8.0 19.3 0.00 0.00 0.00 36 1011.5
20260504172516 21 225 14.5 27.4 0.00 0.00 0.00 35 1011.5
20260504172037 21 225 11.3 29.0 0.00 0.00 0.00 36 1011.6
20260504171557 21 225 12.9 24.1 0.00 0.00 0.00 36 1011.7
20260504171016 21 225 14.5 29.0 0.00 0.00 0.00 36 1011.7
20260504170535 21 203 9.7 19.3 0.00 0.00 0.00 37 1011.8
20260504151016 19 225 12.9 25.7 0.00 0.00 0.00 39 1013.4
20260504150517 19 225 8.0 22.5 0.00 0.00 0.00 40 1013.4
20260504141015 17 225 12.9 27.4 0.00 0.00 0.00 47 1013.6
20260504140537 17 203 11.3 20.9 0.00 0.00 0.00 47 1013.5
20260504130535 15 203 8.0 20.9 0.00 0.00 0.00 55 1014.1
20260504110518 11 225 8.0 22.5 0.00 0.00 0.00 64 1014.3
20260504100517 10 225 8.0 16.1 0.00 0.00 0.00 59 1014.3
20260504081517 11 203 3.2 12.9 0.00 0.00 0.00 49 1013.9
20260504081017 11 203 4.8 8.0 0.00 0.00 0.00 49 1013.9
20260504080518 11 225 6.4 14.5 0.00 0.00 0.00 48 1013.8